English version Home page |
Updated on February 2, 1997 |
プロフィール
|
軌道要素The following improved orbital elements, by Kenji Muraoka, are from 240 observations 1995 Dec. 26 to 1996 Sept. 21, including 9 Planets, Moon and 5 minor planets perturbations and non-gravitational effect of style II. The mean residual is +/- 0.72 arc seconds. Epoch = 1996 Feb. 7.0 TT JDT = 2450120.5 T = 1996 Feb. 24.28741 +/- 0.00030 (m.e.) TT Peri. = 46.34885 +/- 0.00050 Node = 195.76126 +/- 0.00011 (2000.0) Incl. = 54.46586 +/- 0.00005 q = 1.0546139 +/- 0.0000058 AU e = 1.0002436 +/- 0.0000131 1/a = -0.0002310 +/- 0.0000125 1/AU A1 = +0.49 +/- 0.20 A2 = -0.9498 +/- 0.0701
|
星図 |
光度変化m1 = 7.4 + 5 logΔ + 12.5 log r [ ,90] ( 〜1996年 5月24日) m1 = 10.3 + 5 logΔ + 13.5 log r [90, ] (1996年 5月24日〜 )
|
軌道要素は村岡健治氏の計算によるものです。
|